This is the latest recevied weather packets stored in our database for station/object W4CAT-13. If no packets are shown the sender has not sent any weather packets the latest 10 day(s).
| Time | Temp. | Humidity | Pressure | Rain* | Wind** | Luminosity | Snow |
|---|---|---|---|---|---|---|---|
| 1777840834 | 18.33° C | 37% | 981 hPa | 0 mm | - | - | - |
| 1777839903 | 17.78° C | 36% | 981 hPa | 0 mm | - | - | - |
| 1777838973 | 18.33° C | 35% | 981.4 hPa | 0 mm | - | - | - |
| 1777838043 | 18.33° C | 37% | 981.7 hPa | 0 mm | - | - | - |
| 1777837317 | 17.78° C | 36% | 982.1 hPa | 0 mm | - | - | - |
| 1777837201 | 17.78° C | 36% | 982.1 hPa | 0 mm | - | - | - |
| 1777837113 | 17.78° C | 36% | 982.1 hPa | 0 mm | - | - | - |
| 1777836184 | 17.78° C | 35% | 982.1 hPa | 0 mm | - | - | - |
| 1777835253 | 17.22° C | 36% | 982.4 hPa | 0 mm | - | - | - |
| 1777834323 | 16.67° C | 35% | 982.4 hPa | 0 mm | - | - | - |
| 1777833393 | 16.67° C | 39% | 982.7 hPa | 0 mm | - | - | - |
| 1777832463 | 16.11° C | 36% | 982.7 hPa | 0 mm | - | - | - |
| 1777831533 | 16.11° C | 37% | 983.1 hPa | 0 mm | - | - | - |
| 1777830603 | 15.56° C | 40% | 983.2 hPa | 0 mm | - | - | - |
| 1777829673 | 16.11° C | 41% | 983.4 hPa | 0 mm | - | - | - |
| 1777828743 | 15.56° C | 39% | 983.7 hPa | 0 mm | - | - | - |
| 1777827813 | 15° C | 38% | 983.9 hPa | 0 mm | - | - | - |
| 1777826883 | 15° C | 42% | 984.1 hPa | 0 mm | - | - | - |
| 1777825953 | 14.44° C | 41% | 984.2 hPa | 0 mm | - | - | - |
| 1777825023 | 13.89° C | 42% | 984.4 hPa | 0 mm | - | - | - |
| 1777824093 | 13.89° C | 44% | 984.4 hPa | 0 mm | - | - | - |
| 1777823163 | 13.33° C | 44% | 984.4 hPa | 0 mm | - | - | - |
| 1777822263 | 13.33° C | 40% | 984.8 hPa | 0 mm | - | - | - |
| 1777821333 | 13.33° C | 54% | 984.8 hPa | 0 mm | - | - | - |
| 1777820403 | 12.22° C | 55% | 984.4 hPa | 0 mm | - | - | - |
* Rain latest hour (hover to see other rain measurements)
** Current wind speed in m/s (hover to see current wind gust speed)